Tracking 33470 objects as of 12-Mar-2026
HD Live streaming from Space Station
objects crossing your sky now

SL-12 R/B(2)

Track SL-12 R/B(2) now!


NORAD ID: 16797
Int'l Code: 1986-044F
Perigee: 36,503.4 km
Apogee: 36,574.4 km
Inclination: 11.5 °
Period: 1,474.3 minutes
Semi major axis: 42909 km
RCS: 2.4859 m2 (large)
Launch date: June 10, 1986
Source: Commonwealth of Independent States (former USSR) (CIS)
Launch site: TYURATAM MISSILE AND SPACE COMPLEX (TTMTR)

Note: This is a ROCKET BODY
Your satellite tracking list
Your tracking list is empty




NASA's NSSDC Master Catalog

Two Line Element Set (TLE):
1 16797U 86044F   26070.59350558 -.00000171  00000-0  00000-0 0  9997
2 16797  11.5287 325.8019 0008269 213.1892 348.9728  0.97671186141894
Source of the keplerian elements: AFSPC